Location: Churchill Northern Studies Centre
(58.7378°N, 93.8201°W)
Time: 06:25:30
(UTC-05:00)

Envisat - Pass Details

Date: 13 October 2017
Orbit: 764 x 766 km, 98.2° (Epoch: 24 October)

Event Time Altitude Azimuth Distance (km) Brightness Sun altitude
Exits shadow 21:37:12 16° 206° (SSW) 1,919 5.0 -26.4°
Maximum altitude 21:40:43 35° 265° (W) 1,217 4.4 -26.8°
Drops below altitude 10° 21:45:24 10° 332° (NNW) 2,317 6.2 -27.3°
Sets 21:47:55 0° 341° (NNW) 3,248 7.0 -27.6°
